This is the latest recevied weather packets stored in our database for station/object SV9TNF-51. If no packets are shown the sender has not sent any weather packets the latest 10 day(s).
| Time | Temp. | Humidity | Pressure | Rain* | Wind** | Luminosity | Snow |
|---|---|---|---|---|---|---|---|
| 1788213179 | 25.56° C | 55% | 1011.5 hPa | 0 mm | 1.79 m/s, 113° | - | - |
| 1788212879 | 25.56° C | 58% | 1011.5 hPa | 0 mm | 1.79 m/s, 129° | - | - |
| 1788212579 | 25.56° C | 58% | 1011.5 hPa | 0 mm | 3.58 m/s, 124° | - | - |
| 1788212279 | 25° C | 66% | 1011.5 hPa | 0 mm | 3.58 m/s, 319° | - | - |
| 1788211978 | 25° C | 66% | 1011.5 hPa | 0 mm | 4.02 m/s, 325° | - | - |
| 1788211678 | 25° C | 63% | 1011.5 hPa | 0 mm | 2.24 m/s, 164° | - | - |
| 1788211378 | 24.44° C | 63% | 1011.5 hPa | 0 mm | 0.89 m/s, 135° | - | - |
| 1788211078 | 25° C | 65% | 1011.5 hPa | 0 mm | 0 m/s | - | - |
| 1788210778 | 25° C | 66% | 1011.5 hPa | 0 mm | 0 m/s | - | - |
| 1788210478 | 25° C | 66% | 1011.5 hPa | 0 mm | 0.89 m/s, 129° | - | - |
| 1788210178 | 25° C | 67% | 1011.5 hPa | 0 mm | 1.34 m/s, 110° | - | - |
| 1788209878 | 25.56° C | 65% | 1011.5 hPa | 0 mm | 0.89 m/s, 138° | - | - |
| 1788209578 | 25.56° C | 63% | 1011.5 hPa | 0 mm | 0 m/s | - | - |
| 1788209278 | 25.56° C | 62% | 1011.5 hPa | 0 mm | 0 m/s | - | - |
| 1788208978 | 25.56° C | 63% | 1011.5 hPa | 0 mm | 0 m/s | - | - |
| 1788208678 | 25.56° C | 63% | 1011.5 hPa | 0 mm | 0 m/s | - | - |
| 1788208378 | 26.11° C | 62% | 1011.5 hPa | 0 mm | 4.02 m/s, 23° | - | - |
| 1788208077 | 26.11° C | 61% | 1011.5 hPa | 0 mm | 0 m/s | - | - |
| 1788207777 | 26.11° C | 59% | 1011.5 hPa | 0 mm | 2.68 m/s, 11° | - | - |
| 1788207477 | 26.11° C | 61% | 1011.5 hPa | 0 mm | 2.24 m/s, 103° | - | - |
| 1788207177 | 26.11° C | 59% | 1011.5 hPa | 0 mm | 0.89 m/s, 90° | - | - |
| 1788206877 | 26.11° C | 48% | 1011.5 hPa | 0 mm | 1.79 m/s, 165° | - | - |
| 1788206577 | 25.56° C | 66% | 1011.5 hPa | 0 mm | 0 m/s | - | - |
| 1788206277 | 25.56° C | 67% | 1011.5 hPa | 0 mm | 3.13 m/s, 86° | - | - |
| 1788205977 | 25.56° C | 68% | 1011.5 hPa | 0 mm | 1.79 m/s, 127° | - | - |
* Rain latest hour (hover to see other rain measurements)
** Current wind speed in m/s (hover to see current wind gust speed)